Logansport, IN

2:13 AM EDT on June 23, 2017 (GMT -0400)
Logansport Municipal

Weather History for KGGP - December, 2013

Change the Weather History Date:

Monday, December 23, 2013

  Actual Average Record
Temperature  
Mean Temperature 19 °F -  
Max Temperature 30 °F 27 °F 62 °F (2015)
Min Temperature 8 °F 16 °F 8 °F (2013)
Degree Days  
Heating Degree Days 46    
Moisture  
Dew Point 18 °F    
Average Humidity 83    
Maximum Humidity 93    
Minimum Humidity 73    
Precipitation  
Precipitation 0.00 in - - ()
Sea Level Pressure  
Sea Level Pressure 30.31 in    
Wind  
Wind Speed 12 mph (West)    
Max Wind Speed 21 mph    
Max Gust Speed 24 mph    
Visibility 10 miles    
Events      
Averages and records for this station are not official NWS values.
T = Trace of Precipitation, MM = Missing Value Source: NWS Daily Summary

Daily Weather History Graph

Daily Weather History Graph

Search for Another Location

Airport or City:

Trip Planner

Search our weather history database for the weather conditions in past years. The results will help you decide how hot, cold, wet, or windy it might be!

Date:

Astronomy

Dec. 23, 2013 Rise Set
Actual Time 8:07 AM EST 5:22 PM EST
Civil Twilight 7:36 AM EST 5:53 PM EST
Nautical Twilight 7:01 AM EST 6:27 PM EST
Astronomical Twilight 6:28 AM EST 7:01 PM EST
Moon 11:33 PM EST 11:30 AM EST
Length of Visible Light 10h 17m
Length of Day
9h 15m
Waning Gibbous, 68% of the Moon is Illuminated
Dec 23
Waning Gibbous
Dec 25
Last Quarter
Jan 1
New
Jan 7
First Quarter
Jan 15
Full

Hourly Weather History & Observations

Time (EST) Temp. Windchill Dew Point Humidity Pressure Visibility Wind Dir Wind Speed Gust Speed Precip Events Conditions
12:15 AM 30.2 °F 21.3 °F 28.4 °F 93% 30.09 in 10.0 mi West 10.4 mph 18.4 mph N/A   Overcast
12:35 AM 30.2 °F 21.3 °F 28.4 °F 93% 30.09 in 10.0 mi West 10.4 mph - N/A   Overcast
12:55 AM 30.2 °F 21.9 °F 26.6 °F 86% 30.10 in 10.0 mi WNW 9.2 mph - N/A   Overcast
1:15 AM 30.2 °F 20.8 °F 26.6 °F 86% 30.10 in 10.0 mi WNW 11.5 mph - N/A   Overcast
1:35 AM 30.2 °F 20.2 °F 26.6 °F 86% 30.11 in 10.0 mi WNW 12.7 mph 18.4 mph N/A   Overcast
1:55 AM 28.4 °F 18.5 °F 26.6 °F 93% 30.12 in 10.0 mi West 11.5 mph 16.1 mph N/A   Overcast
2:15 AM 28.4 °F 19.1 °F 26.6 °F 93% 30.13 in 10.0 mi West 10.4 mph 17.3 mph N/A   Overcast
2:35 AM 28.4 °F 19.1 °F 26.6 °F 93% 30.14 in 10.0 mi WNW 10.4 mph 16.1 mph N/A   Overcast
2:55 AM 28.4 °F 20.4 °F 26.6 °F 93% 30.15 in 10.0 mi WNW 8.1 mph - N/A   Overcast
3:15 AM 28.4 °F 19.1 °F 26.6 °F 93% 30.15 in 10.0 mi WNW 10.4 mph - N/A   Overcast
3:35 AM 28.4 °F 19.1 °F 26.6 °F 93% 30.16 in 10.0 mi West 10.4 mph - N/A   Overcast
3:55 AM 28.4 °F 18.0 °F 26.6 °F 93% 30.17 in 10.0 mi West 12.7 mph - N/A   Overcast
4:15 AM 28.4 °F 18.0 °F 26.6 °F 93% 30.17 in 7.0 mi West 12.7 mph 17.3 mph N/A   Overcast
4:35 AM 28.4 °F 18.0 °F 24.8 °F 86% 30.17 in 10.0 mi WNW 12.7 mph - N/A   Overcast
4:55 AM 28.4 °F 17.5 °F 24.8 °F 86% 30.18 in 10.0 mi WNW 13.8 mph 18.4 mph N/A   Overcast
5:15 AM 28.4 °F 17.5 °F 24.8 °F 86% 30.18 in 10.0 mi West 13.8 mph - N/A   Overcast
5:35 AM 28.4 °F 17.5 °F 24.8 °F 86% 30.19 in 10.0 mi West 13.8 mph 19.6 mph N/A   Overcast
5:55 AM 26.6 °F 17.5 °F 23.0 °F 86% 30.21 in 10.0 mi West 9.2 mph 17.3 mph N/A   Overcast
6:15 AM 26.6 °F 15.7 °F 23.0 °F 86% 30.22 in 10.0 mi West 12.7 mph 17.3 mph N/A   Overcast
6:35 AM 26.6 °F 16.2 °F 23.0 °F 86% 30.23 in 10.0 mi West 11.5 mph 20.7 mph N/A   Overcast
6:55 AM 26.6 °F 16.8 °F 23.0 °F 86% 30.24 in 10.0 mi West 10.4 mph - N/A   Overcast
7:15 AM 26.6 °F 14.3 °F 23.0 °F 86% 30.26 in 7.0 mi West 16.1 mph 20.7 mph N/A   Overcast
7:35 AM 26.6 °F 16.2 °F 21.2 °F 80% 30.27 in 10.0 mi WNW 11.5 mph 20.7 mph N/A   Overcast
7:55 AM 24.8 °F 12.4 °F 21.2 °F 86% 30.28 in 7.0 mi West 15.0 mph 20.7 mph N/A   Overcast
8:15 AM 24.8 °F 13.4 °F 21.2 °F 86% 30.29 in 7.0 mi West 12.7 mph 19.6 mph N/A   Overcast
8:35 AM 24.8 °F 14.0 °F 21.2 °F 86% 30.30 in 10.0 mi WNW 11.5 mph 17.3 mph N/A   Overcast
8:55 AM 24.8 °F 14.6 °F 21.2 °F 86% 30.30 in 10.0 mi WNW 10.4 mph 17.3 mph N/A   Overcast
9:15 AM 23.0 °F 10.1 °F 19.4 °F 86% 30.32 in 10.0 mi West 15.0 mph - N/A   Overcast
9:35 AM 23.0 °F 8.7 °F 19.4 °F 86% 30.33 in 7.0 mi West 18.4 mph 23.0 mph N/A   Overcast
9:55 AM 23.0 °F 10.1 °F 19.4 °F 86% 30.35 in 10.0 mi West 15.0 mph 19.6 mph N/A   Overcast
10:15 AM 23.0 °F 10.1 °F 19.4 °F 86% 30.35 in 7.0 mi West 15.0 mph 18.4 mph N/A   Overcast
10:35 AM 23.0 °F 11.7 °F 19.4 °F 86% 30.36 in 10.0 mi West 11.5 mph 17.3 mph N/A   Overcast
10:55 AM 23.0 °F 9.2 °F 19.4 °F 86% 30.36 in 10.0 mi West 17.3 mph 24.2 mph N/A   Overcast
11:15 AM 23.0 °F 10.6 °F 19.4 °F 86% 30.36 in 7.0 mi West 13.8 mph - N/A   Overcast
11:35 AM 23.0 °F 9.6 °F 19.4 °F 86% 30.37 in 10.0 mi West 16.1 mph - N/A   Overcast
11:55 AM 23.0 °F 12.4 °F 19.4 °F 86% 30.36 in 10.0 mi West 10.4 mph - N/A   Overcast
12:15 PM 23.0 °F 10.1 °F 19.4 °F 86% 30.36 in 10.0 mi WSW 15.0 mph - N/A   Overcast
12:35 PM 23.0 °F 9.2 °F 19.4 °F 86% 30.35 in 10.0 mi West 17.3 mph 23.0 mph N/A   Overcast
12:55 PM 23.0 °F 10.6 °F 19.4 °F 86% 30.35 in 10.0 mi WSW 13.8 mph 20.7 mph N/A   Overcast
1:15 PM 23.0 °F 9.6 °F 19.4 °F 86% 30.35 in 10.0 mi West 16.1 mph - N/A   Overcast
1:35 PM 23.0 °F 10.6 °F 19.4 °F 86% 30.34 in 10.0 mi West 13.8 mph 20.7 mph N/A   Overcast
1:55 PM 23.0 °F 11.7 °F 19.4 °F 86% 30.35 in 10.0 mi West 11.5 mph 21.9 mph N/A   Overcast
2:15 PM 24.8 °F 13.4 °F 19.4 °F 80% 30.34 in 10.0 mi West 12.7 mph 19.6 mph N/A   Overcast
2:35 PM 24.8 °F 11.9 °F 19.4 °F 80% 30.34 in 10.0 mi West 16.1 mph - N/A   Overcast
2:55 PM 26.6 °F 13.8 °F 19.4 °F 74% 30.34 in 10.0 mi WSW 17.3 mph 20.7 mph N/A   Overcast
3:15 PM 24.8 °F 11.9 °F 19.4 °F 80% 30.35 in 10.0 mi WSW 16.1 mph 24.2 mph N/A   Overcast
3:35 PM 24.8 °F 10.3 °F 19.4 °F 80% 30.35 in 10.0 mi WSW 20.7 mph 24.2 mph N/A   Overcast
3:55 PM 24.8 °F 12.4 °F 19.4 °F 80% 30.35 in 10.0 mi West 15.0 mph - N/A   Overcast
4:15 PM 23.0 °F 10.6 °F 17.6 °F 80% 30.36 in 10.0 mi West 13.8 mph 18.4 mph N/A   Overcast
4:35 PM 23.0 °F 10.1 °F 17.6 °F 80% 30.36 in 10.0 mi West 15.0 mph 20.7 mph N/A   Overcast
4:55 PM 23.0 °F 13.1 °F 17.6 °F 80% 30.37 in 10.0 mi West 9.2 mph - N/A   Overcast
5:15 PM 23.0 °F 11.7 °F 17.6 °F 80% 30.37 in 10.0 mi West 11.5 mph 20.7 mph N/A   Overcast
5:35 PM 21.2 °F 10.1 °F 15.8 °F 80% 30.38 in 10.0 mi WNW 10.4 mph 16.1 mph N/A   Overcast
5:55 PM 21.2 °F 8.9 °F 15.8 °F 80% 30.38 in 10.0 mi WNW 12.7 mph - N/A   Overcast
6:15 PM 21.2 °F 9.5 °F 14.0 °F 74% 30.39 in 10.0 mi West 11.5 mph 17.3 mph N/A   Overcast
6:35 PM 19.4 °F 8.6 °F 14.0 °F 80% 30.39 in 10.0 mi West 9.2 mph 17.3 mph N/A   Mostly Cloudy
6:55 PM 19.4 °F 9.5 °F 12.2 °F 74% 30.39 in 10.0 mi WNW 8.1 mph - N/A   Mostly Cloudy
7:15 PM 19.4 °F 9.5 °F 12.2 °F 74% 30.40 in 10.0 mi WNW 8.1 mph - N/A   Overcast
7:35 PM 17.6 °F 5.0 °F 10.4 °F 73% 30.41 in 10.0 mi West 11.5 mph 17.3 mph N/A   Overcast
7:55 PM 17.6 °F 6.4 °F 10.4 °F 73% 30.43 in 10.0 mi West 9.2 mph 20.7 mph N/A   Overcast
8:15 PM 17.6 °F 2.7 °F 10.4 °F 73% 30.43 in 10.0 mi West 16.1 mph 20.7 mph N/A   Mostly Cloudy
8:35 PM 15.8 °F 2.1 °F 8.6 °F 73% 30.43 in 10.0 mi West 12.7 mph - N/A   Mostly Cloudy
8:55 PM 15.8 °F 1.4 °F 8.6 °F 73% 30.43 in 10.0 mi West 13.8 mph 20.7 mph N/A   Scattered Clouds
9:15 PM 14.0 °F -0.8 °F 8.6 °F 79% 30.43 in 10.0 mi West 13.8 mph 23.0 mph N/A   Mostly Cloudy
9:35 PM 14.0 °F -0.2 °F 8.6 °F 79% 30.43 in 10.0 mi West 12.7 mph 21.9 mph N/A   Overcast
9:55 PM 12.2 °F -1.0 °F 5.0 °F 73% 30.44 in 10.0 mi West 10.4 mph 19.6 mph N/A   Scattered Clouds
10:15 PM 12.2 °F -2.5 °F 5.0 °F 73% 30.43 in 10.0 mi West 12.7 mph - N/A   Scattered Clouds
10:35 PM 10.4 °F -3.3 °F 5.0 °F 79% 30.43 in 10.0 mi West 10.4 mph 16.1 mph N/A   Scattered Clouds
10:55 PM 10.4 °F -6.0 °F 3.2 °F 73% 30.43 in 10.0 mi West 15.0 mph - N/A   Scattered Clouds
11:15 PM 8.6 °F -7.0 °F 3.2 °F 79% 30.44 in 10.0 mi West 12.7 mph 20.7 mph N/A   Scattered Clouds
11:35 PM 8.6 °F -7.0 °F 3.2 °F 79% 30.44 in 10.0 mi West 12.7 mph - N/A   Scattered Clouds
11:55 PM 8.6 °F -8.3 °F 1.4 °F 73% 30.44 in 10.0 mi West 15.0 mph 21.9 mph N/A   Mostly Cloudy